Погода в Жуковке

Погода в Жуковке : погода сейчас, прогноз погоды и архив. Всё, что Вы хотите узнать о погоде в Жуковке!

Хотите узнать прогноз погоды в Жуковке? Тогда Вам сюда: Погода в Жуковке

Поиск расширенной информации на нашем сайте:

Другие новости

Новости СМИ2

Главная страница сайта

Новости сайта

03.07.2017

Напоминаем, что на нашем специализированном сайте Метеоцентр.Азия вы можете получить высокодетализированные автоматические прогнозы погоды по пунктам России, СНГ и мира в авиационном формате (включающие направление и скорость ветра, видимость, явления погоды, количество и форму облачности, нижнюю и верхнюю границу облачности).


Погода в Жуковке - сегодня

Время (UTC), дата Ветер
(°,м/с) 
Видим.   Явления Облачность Т
(°С)
Тd
(°С)
f(%) Тe
(°С)
Pmin
(гПа)
dP
(гПа)
Po
(мм)
O2
(г/м3)
Тmin Tmax R s Состояние
почвы
09 16.10.18 250 (З) 13000 м  {туман}  1/0 верхняя 
[Ci fib]
+15.7 +10 69 +18  1028.8  -0.1  756  286           
15 16.10.18 200 (Ю) 15000 м    ясно 
+15.6 +7.1 57 +16  1026.8  -0.7  754  286           
21 16.10.18 150 (ЮВ) 2800 м  дымка  ясно 
+5 +4.3 95 +6  1027.6  -0.3  754  298           
00 17.10.18 тихо ()   3200 м  дымка  ясно 
+3.8 +3.3 97 +4  1027.6  -0.1  754  299           
09 17.10.18 220 (ЮЗ) 13000 м    ясно 
+18.2 +9.9 58 +21  1027  0.1  755  283           
12 17.10.18 220 (ЮЗ) 15000 м    ясно 
+22.1 +9.5 45 +23  1025.7  -1  754  279           
15 17.10.18 тихо ()   14000 м    ясно 
+15.2 +7.3 59 +15  1025.8  -0.4  753  286           
21 17.10.18 тихо ()   1400 м  дымка  ясно 
+4.7 +4.2 97 +5  1026.7  0.4  754  298           
00 18.10.18 тихо ()   1200 м  дымка  ясно 
+3.3 +2.8 97 +3  1027  0.2  754  300           
09 18.10.18 210 (ЮЗ) 13000 м    1/0 верхняя 
[Ci fib]
+17.9 +9.6 58 +20  1024.6  -0.4  753  283           
12 18.10.18 230 (ЮЗ) 15000 м    3/0 средняя 
[Ac trans]
+21.9 +9.2 44 +22  1022.7  -1.6  752  279           
15 18.10.18 150 (ЮВ) 13000 м    1/0 верхняя 
[Ci fib]
+14.8 +9.6 71 +17  1021.5  -1.7  750  285           
21 18.10.18 тихо ()   1800 м  дымка  8/0 верхняя 
[Ci fib]
+6.5 +5.8 95 +7  1021.7  -0.1  750  294           
09 19.10.18 220 (ЮЗ) 13000 м    8/0 верхняя 
[Ci fib]
+17.2 +10.5 65 +21  1017.8  -0.1  748  282           
12 19.10.18 310 (СЗ) 15000 м    8/0 средняя, верхняя 
[Ac trans|Ci fib]
+20.1 +6.9 42 +20  1016.4  -1.2  747  279           
15 19.10.18 270 (З) 14000 м    6/0 средняя, верхняя 
[Ac trans|Ci fib]
+14.9 +6.5 57 +16  1016.5  -0.3  747  284           
21 19.10.18 360 (С) 8000 м  дымка  ясно 
+8.1 +6.6 90 +7  1018  0.7  747  291           
09 20.10.18 020 (С) 15000 м    ясно 
+11.7 +1.9 51 +12  1021.4  0.8  750  289           
12 20.10.18 010 (С) 20000 м    1/0 верхняя 
[Ci fib]
+12.9 +0.2 42 +12  1020.7  -0.6  750  288           
15 20.10.18 040 (СВ) 20000 м    1/0 средняя 
[Ac lent]
+8.8 -1.7 48 +9  1020.7  -0.3  749  293           
21 20.10.18 020 (С) 8000 м  дымка  ясно 
-0.6 -1.5 94 1023  0.7  750  303           
00 21.10.18 350 (С) 7000 м  дымка  ясно 
-2.3 -2.9 96 -2  1023.5  0.4  751  305           
09 21.10.18 050 (СВ) 15000 м    3/0 средняя 
[Ac trans]
+9 -0.4 52 +8  1025.2  753  294           
12 21.10.18 060 (СВ) 15000 м    8/4 600 м средняя 
[Sc|Ac trans]
+8.7 -1.1 50 +8  1025.4  753  294           
21 21.10.18 тихо ()   8000 м  дымка  1/0 средняя 
[Ac lent]
-2.3 -3.5 91 -2  1027.6  0.3  754  307           
Время (UTC), дата Ветер
(°,м/с) 
Видим.   Явления Облачность Т
(°С)
Тd
(°С)
f(%) Тe
(°С)
Pmin
(гПа)
dP
(гПа)
Po
(мм)
O2
(г/м3)
Тmin Tmax R s Состояние
почвы

Для получения пояснительной информации подведите курсор к названию столбца.

ПОГОДА в Жуковке - архив

Всё, что Вы хотите узнать о погоде в Жуковке - удобно и подробно!

Выберите нужную дату (начиная с 1 января 2015* года) и нажмите кнопку "Найти".
Будут отображены архивные сводки погоды по пункту Жуковка, начиная с указанной даты.


Отображать данные в формате CSV (для использования в таблицах Excel)


Внимание! Наш архив погоды предназначен исключительно для личного некоммерческого использования в познавательных целях. Если Вам необходимы официальные справки о состоянии погоды (для производственных, юридических, коммерческих и т.п. целей), обращайтесь в органы Росгидромета.

*Примечание: данная дата относится к архиву по метеостанциям СССР (Россия, СНГ, Балтия).
Архив по метеостанциям Зарубежной Европы и Азии (кроме Китая) хранится 10 дней, по другим регионам земного шара (Китай, Африка, Америка, Австралия, Океания) - 1 день.

Жуковка - район местоположения метеостанции


Название, широта, долгота, высота метеостанции:
Жуковка 53.5°ш. 33.8°д. 177 м над ур. моря [Российская Федерация]

Дополнительная информация

В oтличие oт бoльшинства пoгoдных сайтoв мы публикуем пoдрoбную метеoинфoрмацию в детальнoм прoфессиoнальнoм фoрмате.

Характеристики температуры и влажнoсти вoздуха измеряются на высoте 2 м в тени вдали oт зданий и деревьев.
Скoрoсть ветра измеряется на высoте 10 м (на урoвне рoста челoвека скoрoсть ветра ниже в 1.5-2 раза). Если метеoстанция нахoдится в гoрoде или в лесу, тo скoрoсть ветра занижена на 2-4 м/с пo сравнению с oткрытым местoм. Скoрoсть ветра над акватoриями крупных рек и oзёр, а также на вершинах хoлмoв на 2-5 м/с выше, чем в oбычных услoвиях.
Атмoсфернoе давление в разных тoчках местнoсти мoжет значительнo oтличаться oт давления на метеoстанции, в зависимoсти oт услoвий рельефа (при пoдъёме на 10 м давление пoнижается примернo на 1 мм рт.ст.).